| ตารางข้อมูล | ค้นข้อมูล1 | ค้นข้อมูล2 | ค่าสูงสุด-ต่ำสุด |  

Select Sensor -->| 20402 | 4529A | 4529C | 4529D | 4529E | 4529F | 89M1A | 89M1B | หน้าจอย่อ | 4529 |
ข้อมูลรวม (ยังไม่ได้เลือก Sensor)

IDDate TimeRoom  Temp  Humidity RSSI Time
 1057753  2026-05-07 14:34:52  4529A  33.6 °C  62.4 %   14:34 
 1057752  2026-05-07 14:34:43  4529D  31.0 °C  79.4 %   14:34 
 1057751  2026-05-07 14:33:44  89M1B  35.6 °C  61.2 %   14:33 
 1057750  2026-05-07 14:33:30  20402  30.0 °C  41.3 %   14:33 
 1057749  2026-05-07 14:30:46  4529C  32.1 °C  54.7 %   14:30 
 1057748  2026-05-07 14:25:10  4529D  31.0 °C  79.6 %   14:25 
 1057747  2026-05-07 14:24:40  4529A  33.6 °C  61.8 %   14:24 
 1057746  2026-05-07 14:24:06  89M1B  35.9 °C  61.8 %   14:24 
 1057745  2026-05-07 14:23:18  20402  29.2 °C  41.1 %   14:23 
 1057744  2026-05-07 14:20:32  4529C  32.1 °C  54.4 %   14:20 
 1057743  2026-05-07 14:15:37  4529D  30.9 °C  79.9 %   14:15 
 1057742  2026-05-07 14:14:27  89M1B  35.9 °C  61.7 %   14:14 
 1057741  2026-05-07 14:14:25  4529A  33.5 °C  62.5 %   14:14 
 1057740  2026-05-07 14:13:08  20402  29.2 °C  41.2 %   14:13 
 1057739  2026-05-07 14:10:17  4529C  32.0 °C  54.2 %   14:10 
 1057738  2026-05-07 14:06:05  4529D  30.9 °C  80.2 %   14:06 
 1057737  2026-05-07 14:04:48  89M1B  36.4 °C  60.8 %   14:04 
 1057736  2026-05-07 14:04:13  4529A  33.5 °C  62.5 %   14:04 
 1057735  2026-05-07 14:02:56  20402  27.9 °C  43.0 %   14:02 
 1057734  2026-05-07 14:00:04  4529C  31.9 °C  54.1 %   14:00 
 1057733  2026-05-07 13:56:29  4529D  30.8 °C  79.4 %   13:56 
 1057732  2026-05-07 13:55:09  89M1B  36.4 °C  60.3 %   13:55 
 1057731  2026-05-07 13:54:00  4529A  33.5 °C  62.7 %   13:54 
 1057730  2026-05-07 13:52:44  20402  28.2 °C  44.9 %   13:52 
 1057729  2026-05-07 13:49:51  4529C  31.8 °C  54.0 %   13:49 
 1057728  2026-05-07 13:46:56  4529D  30.9 °C  77.0 %   13:46 
 1057727  2026-05-07 13:45:30  89M1B  36.2 °C  60.0 %   13:45 
 1057726  2026-05-07 13:43:45  4529A  33.4 °C  63.0 %   13:43 
 1057725  2026-05-07 13:42:35  20402  28.6 °C  46.8 %   13:42 
 1057724  2026-05-07 13:39:39  4529C  31.8 °C  54.0 %   13:39 
 1057723  2026-05-07 13:37:24  4529D  30.9 °C  77.8 %   13:37 
 1057722  2026-05-07 13:35:51  89M1B  36.2 °C  59.6 %   13:35 
 1057721  2026-05-07 13:33:32  4529A  33.3 °C  63.0 %   13:33 
 1057720  2026-05-07 13:32:25  20402  29.5 °C  49.5 %   13:32 
 1057719  2026-05-07 13:29:25  4529C  31.8 °C  53.8 %   13:29 
 1057718  2026-05-07 13:27:51  4529D  30.7 °C  80.0 %   13:27 
 1057717  2026-05-07 13:26:12  89M1B  36.2 °C  59.8 %   13:26 
 1057716  2026-05-07 13:23:20  4529A  33.3 °C  63.1 %   13:23 
 1057715  2026-05-07 13:22:16  20402  30.8 °C  50.4 %   13:22 
 1057714  2026-05-07 13:19:12  4529C  31.8 °C  53.8 %   13:19 
 1057713  2026-05-07 13:18:18  4529D  30.7 °C  79.5 %   13:18 
 1057712  2026-05-07 13:16:33  89M1B  36.2 °C  59.4 %   13:16 
 1057711  2026-05-07 13:13:09  4529A  33.2 °C  63.0 %   13:13 
 1057710  2026-05-07 13:12:06  20402  30.8 °C  50.3 %   13:12 
 1057709  2026-05-07 13:08:58  4529C  31.8 °C  53.9 %   13:08 
 1057708  2026-05-07 13:08:46  4529D  30.7 °C  79.3 %   13:08 
 1057707  2026-05-07 13:06:54  89M1B  36.1 °C  57.2 %   13:06 
 1057706  2026-05-07 13:02:57  4529A  33.2 °C  63.1 %   13:02 
 1057705  2026-05-07 13:01:54  20402  30.8 °C  48.7 %   13:01 
 1057704  2026-05-07 12:59:12  4529D  30.6 °C  79.3 %   12:59 
 1057703  2026-05-07 12:58:45  4529C  31.7 °C  53.8 %   12:58 
 1057702  2026-05-07 12:57:15  89M1B  36.0 °C  57.7 %   12:57 
 1057701  2026-05-07 12:52:44  4529A  33.1 °C  62.9 %   12:52 
 1057700  2026-05-07 12:51:44  20402  30.7 °C  48.6 %   12:51 
 1057699  2026-05-07 12:49:40  4529D  30.6 °C  79.3 %   12:49 
 1057698  2026-05-07 12:48:33  4529C  31.7 °C  53.6 %   12:48 
 1057697  2026-05-07 12:47:36  89M1B  35.8 °C  57.6 %   12:47 
 1057696  2026-05-07 12:42:32  4529A  33.1 °C  62.9 %   12:42 
 1057695  2026-05-07 12:41:32  20402  30.7 °C  48.4 %   12:41 
 1057694  2026-05-07 12:40:07  4529D  30.6 °C  79.5 %   12:40 
 1057693  2026-05-07 12:38:20  4529C  31.7 °C  53.3 %   12:38 
 1057692  2026-05-07 12:37:56  89M1B  35.7 °C  57.8 %   12:37 
 1057691  2026-05-07 12:32:19  4529A  33.1 °C  63.5 %   12:32 
 1057690  2026-05-07 12:31:22  20402  30.6 °C  48.3 %   12:31 
 1057689  2026-05-07 12:30:34  4529D  30.5 °C  79.5 %   12:30 
 1057688  2026-05-07 12:28:18  89M1B  35.4 °C  58.5 %   12:28 
 1057687  2026-05-07 12:28:08  4529C  31.6 °C  53.1 %   12:28 
 1057686  2026-05-07 12:22:05  4529A  33.0 °C  62.7 %   12:22 
 1057685  2026-05-07 12:21:12  20402  30.5 °C  48.2 %   12:21 
 1057684  2026-05-07 12:21:02  4529D  30.5 °C  79.8 %   12:21 
 1057683  2026-05-07 12:18:39  89M1B  35.5 °C  62.0 %   12:18 
 1057682  2026-05-07 12:17:56  4529C  31.6 °C  53.0 %   12:17 
 1057681  2026-05-07 12:11:54  4529A  33.1 °C  62.5 %   12:11 
 1057680  2026-05-07 12:11:30  4529D  30.5 °C  79.9 %   12:11 
 1057679  2026-05-07 12:11:02  20402  30.5 °C  48.1 %   12:11 
 1057678  2026-05-07 12:09:00  89M1B  35.3 °C  62.5 %   12:09 
 1057677  2026-05-07 12:07:43  4529C  31.5 °C  52.6 %   12:07 
 1057676  2026-05-07 12:01:54  4529D  30.5 °C  80.2 %   12:01 
 1057675  2026-05-07 12:01:42  4529A  33.0 °C  62.6 %   12:01 
 1057674  2026-05-07 12:00:53  20402  30.6 °C  48.1 %   12:00 
 1057673  2026-05-07 11:59:21  89M1B  35.3 °C  61.9 %   11:59 
 1057672  2026-05-07 11:57:31  4529C  31.5 °C  52.4 %   11:57 
 1057671  2026-05-07 11:52:22  4529D  30.4 °C  80.0 %   11:52 
 1057670  2026-05-07 11:51:27  4529A  32.9 °C  61.7 %   11:51 
 1057669  2026-05-07 11:50:40  20402  30.5 °C  47.8 %   11:50 
 1057668  2026-05-07 11:49:42  89M1B  34.9 °C  61.6 %   11:49 
 1057667  2026-05-07 11:47:18  4529C  31.5 °C  52.3 %   11:47 
 1057666  2026-05-07 11:42:49  4529D  30.4 °C  79.2 %   11:42 
 1057665  2026-05-07 11:41:12  4529A  32.8 °C  60.6 %   11:41 
 1057664  2026-05-07 11:40:31  20402  30.4 °C  47.7 %   11:40 
 1057663  2026-05-07 11:40:03  89M1B  34.9 °C  61.1 %   11:40 
 1057662  2026-05-07 11:37:05  4529C  31.5 °C  52.2 %   11:37 
 1057661  2026-05-07 11:33:16  4529D  30.3 °C  79.0 %   11:33 
 1057660  2026-05-07 11:31:00  4529A  32.7 °C  61.0 %   11:31 
 1057659  2026-05-07 11:30:26  89M1B  34.6 °C  61.8 %   11:30 
 1057658  2026-05-07 11:30:21  20402  30.4 °C  47.5 %   11:30 
 1057657  2026-05-07 11:26:53  4529C  31.4 °C  52.0 %   11:26 
 1057656  2026-05-07 11:23:43  4529D  30.3 °C  79.0 %   11:23 
 1057655  2026-05-07 11:20:49  4529A  32.7 °C  61.4 %   11:20 
 1057654  2026-05-07 11:20:42  89M1B  34.5 °C  62.5 %   11:20 
 1057653  2026-05-07 11:20:11  20402  30.4 °C  47.4 %   11:20 
 1057652  2026-05-07 11:16:41  4529C  31.4 °C  52.0 %   11:16 
 1057651  2026-05-07 11:14:11  4529D  30.3 °C  78.9 %   11:14 
 1057650  2026-05-07 11:11:03  89M1B  34.5 °C  62.4 %   11:11 
 1057649  2026-05-07 11:10:37  4529A  32.6 °C  61.6 %   11:10 
 1057648  2026-05-07 11:10:02  20402  30.3 °C  47.2 %   11:10 
 1057647  2026-05-07 11:06:29  4529C  31.3 °C  52.1 %   11:06 
 1057646  2026-05-07 11:04:38  4529D  30.3 °C  78.9 %   11:04 
 1057645  2026-05-07 11:01:24  89M1B  34.3 °C  62.9 %   11:01 
 1057644  2026-05-07 11:00:25  4529A  32.6 °C  61.6 %   11:00 
 1057643  2026-05-07 10:59:52  20402  30.3 °C  47.1 %   10:59 
 1057642  2026-05-07 10:56:16  4529C  31.3 °C  51.8 %   10:56 
 1057641  2026-05-07 10:55:05  4529D  30.2 °C  79.0 %   10:55 
 1057640  2026-05-07 10:51:45  89M1B  34.4 °C  63.4 %   10:51 
 1057639  2026-05-07 10:50:13  4529A  32.6 °C  61.3 %   10:50 
 1057638  2026-05-07 10:49:40  20402  30.2 °C  46.5 %   10:49 
 1057637  2026-05-07 10:46:04  4529C  31.3 °C  51.7 %   10:46 
 1057636  2026-05-07 10:45:33  4529D  30.2 °C  79.3 %   10:45 
 1057635  2026-05-07 10:42:06  89M1B  34.0 °C  63.7 %   10:42 
 1057634  2026-05-07 10:40:00  4529A  32.6 °C  61.5 %   10:40 
 1057633  2026-05-07 10:39:30  20402  30.2 °C  46.5 %   10:39 
 1057632  2026-05-07 10:35:59  4529D  30.2 °C  79.1 %   10:35 
 1057631  2026-05-07 10:35:50  4529C  31.2 °C  51.6 %   10:35 
 1057630  2026-05-07 10:32:27  89M1B  34.1 °C  64.5 %   10:32 
 1057629  2026-05-07 10:29:47  4529A  32.4 °C  60.7 %   10:29 
 1057628  2026-05-07 10:29:18  20402  30.1 °C  45.9 %   10:29 
 1057627  2026-05-07 10:26:25  4529D  30.1 °C  78.6 %   10:26 
 1057626  2026-05-07 10:25:38  4529C  31.2 °C  51.6 %   10:25 
 1057625  2026-05-07 10:22:48  89M1B  33.9 °C  64.6 %   10:22 
 1057624  2026-05-07 10:19:34  4529A  32.5 °C  62.4 %   10:19 
 1057623  2026-05-07 10:19:09  20402  30.0 °C  45.5 %   10:19 
 1057622  2026-05-07 10:16:53  4529D  30.1 °C  78.9 %   10:16 
 1057621  2026-05-07 10:15:23  4529C  31.1 °C  51.0 %   10:15 
 1057620  2026-05-07 10:13:09  89M1B  33.9 °C  65.0 %   10:13 
 1057619  2026-05-07 10:09:22  4529A  32.5 °C  62.6 %   10:09 
 1057618  2026-05-07 10:08:59  20402  29.9 °C  45.0 %   10:08 
 1057617  2026-05-07 10:07:20  4529D  30.1 °C  79.2 %   10:07 
 1057616  2026-05-07 10:05:10  4529C  31.0 °C  50.6 %   10:05 
 1057615  2026-05-07 10:03:30  89M1B  33.8 °C  65.8 %   10:03 
 1057614  2026-05-07 09:59:08  4529A  32.5 °C  60.5 %   09:59 
 1057613  2026-05-07 09:58:49  20402  29.8 °C  44.7 %   09:58 
 1057612  2026-05-07 09:57:48  4529D  30.1 °C  79.5 %   09:57 
 1057611  2026-05-07 09:54:57  4529C  30.9 °C  50.6 %   09:54 
 1057610  2026-05-07 09:53:51  89M1B  33.6 °C  66.7 %   09:53 

Data every 20 minute.